Weather Roundup
Issued by NWS

Home | Current Version | Previous Version | Text Only | Print | Product List | Glossary On
Versions: 1 2 3 4 5 6 7 8 9 10 11 12 13 14 15 16 17 18 19 20 21 22 23 24 25 26 27 28 29 30 31 32 33 34 35 36 37 38 39 40 41 42 43 44 45 46 47 48 49 50
000
NZUS93 KARX 231259
HRRWXR

CURRENT HOURLY OBSERVATIONS ACROSS
MUCH OF THE UPPER MISSISSIPPI VALLEY
NATIONAL WEATHER SERVICE LA CROSSE WI
800 AM CDT THU MAR 23 2017


...SOUTHEAST MINNESOTA...


CITY           SKY/WX    TMP DP  RH WIND       PRES   REMARKS
ROCHESTER      CLOUDY    33  22  63 SE17G28   30.16F WCI  22
ROCHESTER/MAYO CLOUDY    34  21  58 SE14G24   30.16F WCI  25
WINONA         CLOUDY    36  25  64 SE10      30.23F WCI  28
AUSTIN         CLOUDY    34  21  60 SE14G21   30.14F WCI  24
ALBERT LEA     CLOUDY    34  23  64 S21       30.11F WCI  22
DODGE CENTER   CLOUDY    34  23  64 SE17G25   30.13F WCI  23
PRESTON        CLOUDY    32  21  62 SE13      30.19S WCI  23
OWATONNA       CLOUDY    36  21  55 SE22G31   30.11F WCI  24
FARIBAULT      CLOUDY    36  25  64 SE16      30.12F WCI  26
$$

...ELSEWHERE IN MINNESOTA...


CITY           SKY/WX    TMP DP  RH WIND       PRES   REMARKS
MINNEAPOLIS    CLOUDY    37  20  50 S13       30.13F WCI  29
INTNL FALLS    CLOUDY    32  19  58 S9        29.97F WCI  24
DULUTH         CLOUDY    29  27  92 SE13      30.11F WCI  19
RED WING       CLOUDY    37  19  48 SE13G21   30.17F WCI  29
REDWOOD FALLS  CLOUDY    37  24  59 SE17      30.02F WCI  27
MANKATO        CLOUDY    36  24  62 SE18      30.09F WCI  26
WORTHINGTON    CLOUDY    36  22  56 SE18G25   29.99F WCI  26
FAIRMONT       CLOUDY    36  23  59 SE23      30.05F WCI  24
$$

...SOUTHWEST WISCONSIN...


CITY           SKY/WX    TMP DP  RH WIND       PRES   REMARKS
LA CROSSE      CLOUDY    35  21  56 SE16      30.26F WCI  25
PRAIRIE DU CHI CLOUDY    34  20  57 E8        30.29F WCI  27
BOSCOBEL       CLOUDY    34  21  59 VRB5      30.31F WCI  30
LONE ROCK      NOT AVBL
PLATTEVILLE    CLOUDY    32  24  71 SE14      30.30F WCI  22
FORT MC COY    CLOUDY    33  20  59 SE7       30.29F WCI  27
MAUSTON-NEW LI CLOUDY    31  22  68 SE9       30.32S WCI  23
VIROQUA        CLOUDY    31  21  65 SE14      30.26S WCI  21
WIS DELLS      CLOUDY    30  21  69 SE8       30.32F WCI  23
$$

...ELSEWHERE IN WISCONSIN...


CITY           SKY/WX    TMP DP  RH WIND       PRES   REMARKS
MILWAUKEE      CLOUDY    35  22  58 SE14      30.40F WCI  26
MADISON        CLOUDY    32  21  64 SE12      30.35F WCI  23
GREEN BAY      CLOUDY    30  26  85 S3        30.40F
EAU CLAIRE     NOT AVBL
BLACK RVR FLS  CLOUDY    33  18  53 SE6       30.26F WCI  28
MEDFORD        CLOUDY    27  20  73 SE9       30.26F WCI  18
WAUSAU         CLOUDY    28  18  66 SE10      30.30F WCI  19
WIS RAPIDS     CLOUDY    29  20  69 SE7       30.32F WCI  22
MARSHFIELD     CLOUDY    29  18  63 SE14      30.26F WCI  18
RICE LAKE      CLOUDY    32  24  73 SE16      30.20F WCI  21
$$

...NORTHEAST IOWA...


CITY           SKY/WX    TMP DP  RH WIND       PRES   REMARKS
WATERLOO       CLOUDY    35  22  58 SE13      30.19F WCI  26
DUBUQUE        CLOUDY    33  22  63 SE14      30.28F WCI  23
DECORAH        CLOUDY    34  21  60 SE14      30.20F WCI  24
MASON CITY     CLOUDY    34  23  64 SE20G25   30.14F WCI  23
CHARLES CITY   CLOUDY    34  21  60 SE17G24   30.18F WCI  23
OELWEIN        CLOUDY    34  23  64 SE20G26   30.21F WCI  22
$$

...ELSEWHERE IN IOWA...


CITY           SKY/WX    TMP DP  RH WIND       PRES   REMARKS
DES MOINES     CLOUDY    42  20  41 SE15      30.13S
IOWA CITY      CLOUDY    38  23  55 SE13G20   30.26F WCI  30
FORT DODGE     CLOUDY    37  19  48 SE13      30.09S WCI  29
MARSHALLTOWN   CLOUDY    37  22  54 SE16      30.16F WCI  28
CEDAR RAPIDS   CLOUDY    36  23  59 SE14      30.22F WCI  27
$$

...NORTHERN ILLINOIS...


CITY           SKY/WX    TMP DP  RH WIND       PRES   REMARKS
CHICAGO-OHARE  CLOUDY    34  18  52 SE16      30.40F WCI  24
CHICAGO-MIDWAY CLOUDY    33  19  56 SE12      30.42F WCI  24
MOLINE         CLOUDY    36  23  59 SE10      30.31S WCI  28
ROCKFORD       CLOUDY    34  21  59 SE15G21   30.38F WCI  24
PEORIA         CLOUDY    36  24  62 SE7       30.35S WCI  30
$$

NOTE: "FAIR" INDICATES FEW OR NO CLOUDS BELOW 12,000 FEET WITH NO
SIGNIFICANT WEATHER AND/OR OBSTRUCTIONS TO VISIBILITY. WIND
SPEEDS ARE IN MILES-PER-HOUR.




USA.gov is the U.S. government's official web portal to all federal, state and local government web resources and services.